Vertical_Velocity
-2 -1 -2 -2 -1 -2 -2 -2 -1 -2 -2 -1 -1 -0 0 -1 -5 0 -4 -2 -1 2 -2 1 -2 -3 -0 -4 4 -1 4 1 2 2 3 -0 0 -0 -5 6 14 12 4 2 3 -1 6 7 -2 -6 19 -20 6 0
-2 -2 -1 -1 -1 -1 -2 -2 -2 -1 -2 -2 -1 -1 -2 0 -2 -6 -0 -1 -1 1 1 2 -3 -1 0 -4 2 0 -2 -0 -1 2 1 6 -0 -7 -3 1 3 14 -4 6 2 10 1 -1 -3 -4 0 2 -8 7
-3 -2 -1 -0 -1 -1 -1 -1 -2 -1 -2 -3 -3 -2 -0 -1 -4 -3 -1 -0 -1 -0 10 0 1 -1 -0 -0 2 2 -3 1 3 -1 1 -1 -5 6 -0 1 0 4 14 0 21 2 8 8 -2 -3 2 -2 2 -2
-2 -2 -1 -1 -2 -0 -1 -1 -1 -2 -2 -2 -0 -0 -3 -1 -1 -1 0 -1 -1 0 6 2 -1 -2 0 -3 -0 0 -2 -0 -0 2 -0 2 5 -1 -6 -5 5 -5 10 4 -1 10 2 4 -7 -1 -3 -4 0 -3
-0 -1 -1 -0 -1 -0 -1 -1 -2 -2 -1 -1 1 1 -1 -1 -3 -5 -1 1 -2 -1 7 1 -1 -4 2 3 -1 1 0 -1 -0 4 -1 -1 -2 3 4 4 7 -2 -3 2 5 -10 -0 -2 -2 -2 -3 -3 -0 1
-0 -1 -1 -0 -0 -1 -1 -2 -1 -2 -2 -2 -1 -3 -0 1 -6 38 3 -2 -0 -1 5 5 -3 -3 1 0 -1 -0 -1 -0 -0 -2 1 -2 -0 2 1 -1 0 -1 3 -5 3 -4 -1 0 -3 -0 -4 -4 0 -2
-0 -1 -1 1 0 -1 -1 -1 0 -0 -3 -2 -3 7 -1 -2 -2 -1 -1 0 3 -1 1 7 -2 -2 1 -2 -1 -0 -1 -0 -1 0 3 -2 5 -7 -9 1 2 -2 3 -4 -2 -1 -5 -7 -2 -1 2 3 -2 -4
-1 -1 -1 -0 -1 -2 -2 -0 2 2 -3 0 -2 -1 -1 -3 -4 0 35 2 -4 -2 2 3 1 1 1 -1 -2 -2 1 0 2 0 2 2 -7 -2 -18 12 -3 -4 -1 -2 2 -5 -3 -0 -1 11 2 7 3 -2
-0 0 -1 -3 -2 -2 -1 2 2 2 1 0 -0 2 -3 -2 2 -1 -3 -7 -0 1 1 0 -3 -2 -1 -3 -2 -1 -3 -4 -6 -0 -0 -10 -4 -28 27 10 -5 -5 7 0 1 -1 -0 4 7 5 3 -2 4 2
1 0 -1 -2 -3 -4 -1 1 3 1 -2 14 -0 1 -3 -3 1 1 0 -1 2 1 -4 -5 0 1 1 -3 -3 -3 4 37 3 2 -7 -3 -5 -1 -7 1 -7 -3 18 12 -2 4 3 -3 6 4 3 -2 -6 -3
0 -0 -2 -2 -3 -4 -2 -0 0 -2 8 -5 -3 1 -0 -0 -2 -1 2 1 2 -2 -0 2 1 -1 3 1 -2 -0 0 2 -6 -0 -5 1 1 2 -3 1 4 -5 -8 3 9 17 6 11 6 0 5 2 -4 -3
-1 0 -1 -3 -2 -5 -5 -3 2 -5 39 -14 -5 1 -1 -1 -1 -3 6 8 0 -5 -0 3 -2 -5 -4 2 -0 -3 -2 -2 1 -2 0 4 3 4 1 -1 3 1 -6 2 -3 3 3 5 1 -4 2 5 -1 1
-0 -0 -1 -3 -3 -3 -1 -4 -12 -12 29 3 -2 3 -1 0 1 5 -4 -2 -2 -1 2 1 0 -2 1 0 -1 -2 3 -3 20 2 8 1 4 3 3 3 4 1 -1 -4 4 3 3 3 -0 1 1 -2 7 -3
1 1 -3 -2 -3 -8 -3 1 -3 -3 1 4 4 -4 -1 -1 4 4 0 -1 1 0 -2 -1 1 0 0 1 -1 2 1 0 1 -3 -6 -0 -0 3 3 1 2 5 3 -0 -1 2 -0 -0 0 -1 -1 -7 2 6
1 0 -3 1 -4 -11 -5 -5 -9 -3 -1 -1 -7 -2 -5 -4 -3 -1 -1 -2 -4 -1 -2 -1 2 -0 -1 3 2 -2 0 0 8 -4 -3 1 2 2 3 5 4 4 2 -2 -5 -2 1 1 -0 -1 -3 -2 -4 -0
1 -1 -2 1 -1 -4 1 -4 -12 -8 -3 -10 -5 -2 -5 -5 -3 -2 0 -4 1 2 -1 1 1 -2 -3 -1 -1 4 -1 8 6 -1 2 0 0 1 1 2 2 3 1 2 -0 -3 -2 0 -1 -3 -3 -4 -7 -7
-0 -2 -2 -1 -4 -1 1 -2 1 -0 -2 -5 -6 -5 -0 -1 -1 -2 2 -1 -1 1 -2 -2 0 -8 -1 -5 1 2 2 2 5 -8 -4 1 2 2 1 1 0 -0 0 1 -1 -1 -1 -3 -6 -5 -2 -6 -4 -5
-1 -3 -2 -2 -2 -2 -1 -0 -0 0 0 -1 -1 -5 3 2 2 1 -2 -3 1 1 -0 -4 -4 -6 -3 6 15 10 2 -2 -2 1 1 -3 -1 4 1 1 3 2 2 1 -1 -3 -4 -5 -7 -3 -9 -7 -8 -3
-2 -3 -2 -3 -3 -2 -1 1 -1 3 -0 -1 -2 -5 -1 1 2 -1 1 -2 -1 -1 -3 1 -9 6 8 0 -3 0 3 3 -1 -2 -0 3 3 -0 -0 1 2 -0 -2 -2 -3 -4 -5 -7 -6 -9 -11 -13 -11 -6
-2 -4 -2 -3 -2 -3 -5 -3 -4 -2 1 -0 -0 0 -1 2 3 6 1 -2 -3 -7 -4 -1 10 5 1 5 -1 1 -2 -2 -1 1 2 -0 -1 -0 3 -3 -5 -5 -5 -6 -8 -10 -9 -8 -4 -7 -8 -10 -13 -3
-2 -3 -4 -3 -2 -3 -4 -4 -3 1 -1 -2 -0 -0 1 2 2 2 4 2 -0 3 -4 4 -1 3 -2 -1 -2 -1 -1 -3 -2 -6 2 5 7 -2 -6 -8 -6 -3 -1 0 -3 -1 -6 -3 -3 -7 -9 -5 -4 -5
-1 -2 -1 -2 -2 -1 -0 0 -2 -1 -1 -0 -3 1 -0 1 2 6 6 9 7 5 -1 1 -3 -0 -10 -1 -5 -7 -2 -3 0 -2 -1 -1 -2 -1 0 1 2 4 4 5 4 -0 -2 -1 -2 -1 -2 -3 -6 -6
-2 -2 0 -0 -1 -1 -1 -3 -2 -1 -0 2 -0 -1 -2 -3 -2 -0 5 4 2 2 -0 -1 -3 -4 -6 -5 -2 -2 0 1 1 -0 -1 0 -0 -0 1 1 0 1 -0 0 0 -1 0 -3 1 -0 -1 -4 -1 -0
1 -2 -1 -3 2 2 -1 -2 -2 -0 -0 0 1 -0 2 1 2 -2 -1 6 5 2 1 -0 -1 -3 -4 -4 -3 -1 -1 -2 -2 -1 1 0 -0 1 2 1 1 2 3 2 1 0 -1 -2 -2 -4 9 -1 -3 1
-2 -5 -5 1 -1 0 0 -0 -1 -2 -0 -3 -2 -1 2 2 3 3 -2 -2 3 1 2 5 5 4 2 -1 -2 -1 0 -1 0 -0 -1 1 3 1 1 1 2 3 2 1 1 0 0 0 0 -1 1 2 0 4
0 -8 -4 1 2 0 -0 2 -1 -1 -2 -2 -1 -1 0 -0 -2 0 3 2 -3 -1 1 2 1 0 2 2 1 0 -1 -1 -1 -1 -0 0 -0 -1 -0 0 1 2 2 2 1 2 2 1 -1 1 1 1 -1 2
-9 -0 6 1 1 -0 -1 -1 -2 -2 -1 -1 -1 -1 -1 -0 1 -1 -1 1 2 0 -1 -2 -3 -2 -1 -1 -0 1 1 1 1 0 0 1 1 0 0 -0 0 0 0 1 1 -1 -1 1 2 0 1 -1 -1 -2
3 1 2 1 -1 -2 -5 -2 -2 1 -1 -1 -2 -3 -0 0 -2 1 1 -1 -1 0 1 1 0 -1 -3 -3 -2 -3 -3 -2 -2 -1 -0 -0 -1 1 1 -1 -2 -2 -3 -3 -3 -2 -2 -1 -0 1 2 -0 -2 0
3 2 -2 -1 -6 -5 -0 2 2 0 -1 -2 1 -0 0 -2 -4 -0 -2 0 1 0 -0 -0 -0 -0 0 -0 -0 -1 -1 1 1 -1 0 1 -1 -4 -3 -4 -3 -3 -2 -5 -4 -3 -2 -1 -1 -2 -2 -1 1 -0
2 -3 -2 -3 -1 1 1 -2 -1 -1 -1 -1 -1 -1 -2 -2 -2 -1 -1 -2 -0 1 2 0 0 -0 -0 -0 -0 -1 -2 -2 -2 -2 2 1 -2 -4 -2 -3 -2 -2 -4 -3 -2 1 -1 -1 -3 -1 1 -1 -1 4
-1 -3 -1 -2 2 -0 -0 -1 -2 -1 -1 -1 -1 -0 -0 -2 -5 -2 -1 -1 -2 0 2 1 1 0 -1 -1 0 -0 -0 -0 -1 -1 -3 2 4 3 4 2 -1 -0 1 -0 -1 2 2 2 4 5 3 2 2 1
3 0 -0 1 2 -0 -1 -1 -2 -1 -0 -1 -0 0 -1 -2 -2 -1 -4 -2 -1 -2 1 2 2 0 -3 -1 -2 -3 -1 -1 -1 -2 -3 -2 -0 1 1 -1 -2 -1 2 -0 -1 2 2 -2 -3 -2 -0 3 3 3
1 2 -1 -3 -0 1 1 -2 -1 -1 -0 -2 -3 -1 -2 -1 -1 -2 -2 -2 -3 -2 -0 3 2 0 -0 1 -1 -4 -3 -3 -2 1 -3 -3 -1 -0 1 -1 -1 1 2 -1 -1 0 1 1 1 1 1 0 -0 1
Height
5535 5530 5525 5519 5515 5510 5506 5502 5497 5492 5487 5481 5475 5470 5464 5459 5454 5452 5449 5447 5448 5450 5449 5449 5450 5452 5453 5453 5456 5460 5466 5470 5477 5483 5489 5495 5501 5509 5516 5523 5532 5538 5546 5553 5559 5565 5570 5577 5583 5591 5600 5602 5614 5619
5527 5521 5517 5512 5507 5503 5498 5493 5488 5482 5476 5469 5463 5457 5453 5448 5443 5439 5438 5436 5436 5438 5440 5439 5440 5443 5445 5445 5448 5450 5455 5460 5468 5474 5480 5488 5494 5497 5507 5515 5520 5530 5536 5546 5553 5558 5561 5567 5574 5583 5588 5595 5600 5610
5519 5514 5509 5504 5499 5495 5489 5484 5478 5471 5465 5458 5452 5448 5444 5441 5436 5432 5430 5428 5429 5431 5433 5432 5434 5436 5437 5439 5440 5443 5445 5450 5458 5464 5471 5478 5486 5491 5495 5502 5510 5518 5526 5534 5542 5547 5552 5559 5565 5572 5579 5586 5592 5600
5512 5506 5501 5497 5492 5487 5481 5474 5468 5461 5455 5449 5444 5440 5437 5433 5429 5426 5425 5424 5425 5426 5427 5428 5428 5429 5431 5432 5433 5435 5437 5441 5447 5454 5461 5468 5476 5480 5486 5493 5501 5507 5516 5525 5533 5538 5544 5549 5557 5564 5569 5577 5584 5590
5504 5498 5494 5489 5484 5478 5471 5465 5458 5452 5446 5441 5437 5433 5429 5426 5424 5422 5422 5422 5422 5423 5424 5424 5424 5425 5427 5427 5427 5427 5430 5433 5437 5444 5451 5458 5466 5474 5480 5485 5492 5499 5506 5514 5522 5527 5535 5540 5548 5554 5561 5568 5574 5580
5496 5491 5486 5482 5476 5469 5462 5456 5450 5444 5439 5434 5430 5426 5424 5421 5419 5417 5419 5420 5419 5418 5420 5422 5421 5421 5421 5421 5420 5421 5424 5427 5430 5433 5441 5449 5456 5464 5470 5476 5484 5490 5496 5502 5510 5519 5527 5534 5540 5545 5551 5558 5564 5570
5488 5483 5479 5474 5468 5461 5454 5448 5443 5438 5433 5429 5426 5422 5420 5417 5416 5416 5417 5417 5417 5416 5416 5418 5417 5418 5417 5417 5417 5418 5420 5423 5424 5427 5433 5439 5446 5449 5459 5469 5476 5482 5488 5494 5501 5510 5517 5525 5533 5536 5541 5547 5554 5559
5481 5476 5472 5467 5460 5453 5447 5441 5435 5431 5427 5424 5421 5419 5416 5413 5413 5413 5412 5413 5413 5413 5414 5415 5416 5416 5416 5416 5416 5416 5417 5418 5420 5423 5426 5429 5434 5441 5451 5465 5468 5474 5481 5486 5492 5499 5507 5516 5522 5528 5531 5536 5543 5549
5474 5470 5466 5460 5453 5447 5439 5432 5428 5424 5421 5420 5418 5416 5413 5411 5411 5411 5410 5410 5409 5411 5410 5412 5413 5413 5413 5413 5414 5415 5416 5416 5418 5420 5421 5421 5426 5435 5451 5453 5459 5468 5475 5479 5484 5491 5498 5505 5510 5515 5520 5525 5534 5540
5467 5464 5459 5454 5447 5439 5431 5424 5419 5416 5415 5416 5415 5413 5411 5409 5408 5409 5408 5408 5408 5408 5408 5409 5410 5410 5410 5411 5413 5414 5414 5416 5415 5417 5416 5418 5422 5426 5434 5446 5453 5461 5467 5473 5477 5484 5489 5493 5499 5503 5508 5514 5522 5528
5462 5458 5453 5448 5441 5433 5425 5417 5412 5410 5412 5413 5412 5411 5410 5408 5408 5407 5407 5407 5407 5407 5407 5408 5409 5407 5406 5408 5410 5411 5413 5413 5415 5415 5415 5414 5416 5421 5428 5438 5446 5452 5459 5464 5469 5476 5481 5486 5489 5493 5500 5505 5510 5518
5456 5453 5449 5443 5437 5428 5420 5412 5403 5405 5409 5411 5410 5408 5408 5407 5406 5407 5407 5407 5407 5407 5407 5407 5407 5405 5404 5406 5407 5411 5412 5414 5414 5415 5415 5414 5415 5417 5422 5429 5438 5444 5451 5454 5458 5465 5472 5475 5479 5484 5491 5496 5500 5508
5451 5448 5444 5439 5433 5425 5417 5410 5403 5403 5405 5407 5407 5407 5406 5406 5405 5405 5406 5406 5406 5406 5406 5407 5407 5406 5405 5404 5407 5409 5412 5413 5413 5414 5415 5415 5415 5416 5418 5423 5430 5435 5442 5447 5451 5456 5461 5466 5470 5476 5480 5487 5491 5497
5446 5443 5440 5436 5430 5424 5417 5410 5406 5405 5405 5406 5405 5405 5404 5404 5405 5405 5406 5406 5406 5406 5406 5407 5407 5407 5406 5405 5406 5409 5412 5412 5413 5414 5415 5416 5416 5416 5416 5419 5423 5428 5432 5437 5442 5446 5451 5456 5461 5466 5471 5477 5482 5488
5442 5439 5437 5432 5427 5422 5417 5411 5406 5404 5405 5405 5404 5404 5405 5405 5405 5405 5405 5405 5406 5405 5405 5405 5405 5405 5405 5406 5406 5408 5410 5412 5413 5413 5414 5415 5415 5415 5415 5416 5418 5420 5423 5428 5433 5438 5442 5447 5451 5456 5461 5466 5472 5477
5437 5436 5433 5430 5425 5421 5417 5413 5409 5406 5407 5406 5406 5406 5406 5406 5405 5405 5405 5405 5404 5404 5404 5403 5403 5404 5404 5404 5405 5407 5409 5411 5411 5411 5413 5413 5414 5414 5414 5414 5415 5416 5418 5420 5424 5428 5431 5435 5439 5444 5449 5454 5459 5464
5433 5432 5430 5427 5423 5420 5417 5415 5412 5411 5409 5408 5407 5407 5406 5405 5404 5404 5403 5402 5403 5403 5402 5401 5401 5401 5402 5403 5404 5404 5405 5406 5407 5408 5410 5410 5411 5412 5412 5412 5412 5413 5414 5415 5416 5418 5420 5423 5426 5430 5435 5440 5446 5452
5428 5429 5427 5425 5422 5419 5416 5415 5413 5411 5409 5407 5406 5405 5405 5404 5403 5401 5400 5399 5399 5399 5398 5398 5398 5398 5399 5401 5402 5402 5401 5401 5403 5405 5405 5406 5407 5407 5408 5408 5409 5409 5410 5410 5411 5411 5411 5411 5413 5416 5419 5423 5429 5435
5424 5425 5424 5423 5420 5417 5416 5414 5411 5409 5407 5405 5404 5402 5401 5400 5399 5397 5396 5395 5394 5393 5393 5394 5393 5394 5396 5396 5397 5397 5398 5398 5399 5400 5401 5402 5402 5402 5403 5403 5403 5403 5403 5402 5401 5401 5401 5400 5401 5403 5406 5408 5413 5418
5420 5421 5421 5420 5418 5417 5415 5413 5410 5408 5406 5404 5401 5399 5397 5396 5394 5393 5391 5389 5388 5387 5387 5387 5389 5390 5391 5391 5390 5391 5392 5392 5394 5395 5396 5396 5396 5397 5397 5396 5395 5394 5393 5392 5391 5390 5389 5390 5390 5390 5392 5394 5396 5402
5416 5418 5418 5417 5416 5416 5415 5413 5410 5409 5407 5404 5401 5398 5396 5393 5391 5389 5387 5384 5383 5382 5381 5382 5382 5383 5383 5384 5384 5385 5387 5388 5388 5390 5391 5391 5391 5391 5390 5387 5385 5383 5382 5382 5381 5380 5379 5378 5376 5374 5375 5377 5378 5382
5411 5413 5414 5413 5414 5414 5414 5413 5411 5409 5407 5405 5402 5399 5397 5393 5390 5386 5384 5381 5378 5375 5373 5373 5374 5375 5377 5379 5380 5381 5383 5384 5385 5385 5385 5385 5385 5383 5381 5379 5378 5378 5378 5377 5376 5375 5373 5371 5369 5367 5366 5363 5360 5361
5406 5408 5409 5410 5411 5411 5413 5412 5411 5409 5408 5406 5404 5401 5399 5396 5392 5388 5384 5379 5374 5369 5366 5366 5366 5369 5371 5374 5376 5378 5380 5380 5381 5380 5380 5379 5378 5378 5378 5377 5377 5376 5375 5374 5372 5370 5368 5365 5363 5361 5359 5357 5354 5351
5400 5403 5404 5405 5407 5408 5409 5409 5409 5408 5407 5406 5404 5402 5400 5397 5395 5392 5388 5384 5379 5374 5370 5368 5367 5368 5371 5373 5375 5376 5376 5376 5376 5377 5378 5378 5378 5378 5377 5376 5376 5374 5373 5371 5369 5367 5364 5361 5358 5355 5353 5352 5349 5347
5394 5396 5398 5400 5402 5404 5405 5405 5405 5406 5405 5404 5403 5402 5400 5398 5397 5394 5392 5390 5386 5382 5380 5378 5376 5376 5376 5376 5377 5377 5377 5377 5378 5378 5378 5378 5378 5377 5376 5375 5374 5372 5370 5368 5366 5364 5361 5358 5354 5351 5349 5347 5346 5344
5385 5387 5391 5395 5398 5399 5400 5401 5401 5402 5402 5401 5401 5400 5399 5397 5396 5395 5393 5391 5390 5387 5385 5384 5382 5381 5380 5380 5379 5379 5379 5379 5379 5378 5378 5377 5376 5375 5374 5372 5370 5369 5366 5364 5362 5360 5357 5355 5352 5349 5346 5343 5342 5340
5377 5381 5386 5388 5391 5393 5394 5395 5396 5397 5397 5397 5397 5397 5396 5395 5394 5393 5391 5390 5389 5387 5386 5385 5384 5383 5382 5381 5380 5380 5379 5379 5378 5377 5376 5375 5374 5372 5371 5369 5367 5365 5362 5360 5357 5355 5353 5351 5349 5347 5344 5342 5340 5338
5374 5377 5380 5383 5384 5385 5387 5388 5390 5392 5392 5392 5392 5392 5391 5391 5390 5389 5388 5387 5385 5384 5384 5383 5382 5381 5381 5380 5379 5378 5377 5376 5375 5374 5373 5372 5370 5369 5367 5365 5363 5361 5358 5356 5353 5349 5347 5346 5345 5344 5342 5341 5340 5338
5369 5372 5373 5375 5377 5379 5382 5384 5385 5386 5386 5386 5386 5386 5385 5384 5383 5383 5382 5382 5381 5380 5379 5379 5378 5377 5377 5376 5375 5374 5372 5371 5369 5369 5368 5367 5366 5366 5364 5362 5360 5357 5355 5352 5349 5346 5343 5341 5340 5339 5339 5339 5338 5337
5364 5365 5368 5370 5373 5375 5378 5378 5380 5380 5381 5381 5381 5381 5380 5378 5377 5376 5376 5375 5376 5376 5375 5374 5374 5373 5373 5373 5371 5370 5368 5365 5363 5362 5361 5361 5361 5361 5360 5358 5357 5355 5353 5351 5348 5345 5343 5340 5338 5336 5335 5336 5337 5337
5358 5360 5362 5364 5368 5370 5372 5373 5374 5375 5375 5376 5376 5376 5376 5374 5372 5370 5369 5369 5369 5370 5370 5371 5370 5370 5370 5370 5368 5366 5364 5362 5360 5358 5358 5358 5358 5358 5357 5356 5355 5354 5353 5350 5348 5347 5345 5342 5340 5338 5337 5336 5336 5337
5351 5354 5356 5359 5362 5364 5365 5367 5368 5369 5370 5371 5371 5371 5371 5370 5369 5367 5365 5365 5365 5365 5365 5366 5366 5366 5366 5366 5365 5363 5361 5359 5358 5357 5357 5357 5357 5357 5357 5356 5355 5354 5353 5351 5349 5348 5346 5345 5343 5341 5340 5339 5339 5339
5343 5346 5349 5351 5354 5357 5359 5361 5362 5363 5364 5365 5365 5365 5365 5365 5364 5364 5362 5360 5359 5358 5359 5360 5361 5362 5362 5362 5362 5360 5359 5358 5358 5357 5357 5357 5357 5357 5356 5355 5353 5352 5351 5351 5350 5349 5347 5346 5344 5344 5343 5343 5342 5342